Lake Erie PROM 2019 vs Lake Erie PROM 2017

Aggregate Data Points
Difference This Meet That Meet
Overall Athletes +41 355 314
Overall Average -15.15 22:51.63 23:06.78
1st-10th Place +2.36 17:22.67 17:20.31
1st-25th Place +8.49 17:51.63 17:43.14
1st-50th Place +9.37 18:27.18 18:17.82
1st-100th Place -5.38 19:06.26 19:11.63
Common Athletes -- -- 65
Ran Faster 33 49 16
Ran Season Best -3 16 19
Average Time -40.81 22:23.52 23:04.33
Median Time -39.30 21:19.00 21:58.30
Middle 80% Times -40.52 21:52.52 22:33.04
Top 10% Times -56.47 17:46.96 18:43.43
Top 25% Times -47.37 18:39.39 19:26.76
Top 50% Times -44.52 19:31.08 20:15.60
Bottom 50% Times -35.87 24:35.24 25:11.11
Bottom 25% Times -29.02 28:01.19 28:30.22
Bottom 10% Times -37.59 31:33.79 32:11.37
Average Difference -40.81 -- --
Median Difference +59.30 -- --
Middle 80% Difference -45.72 -- --
Top 10% Difference -15.54 -- --
Top 50% Difference -44.29 -- --
Top 25% Difference -46.81 -- --
Top 50% Difference -44.29 -- --
Bottom 50% Difference -34.31 -- --
Bottom 25% Difference -20.78 -- --
Bottom 10% Difference -1:01.93 -- --

Performances of Common Athletes
Athlete Team Difference This Meet That Meet
Collin Melnykowycz Ann Arbor Pioneer -3:19.80 17:01.80 20:21.60
Andrew Victoria Saline -28.40 17:15.40 17:43.80
Nathan Irgang Saline -46.80 17:28.30 18:15.10
Peter Bonasso Ann Arbor Pioneer -2:21.40 17:42.50 20:03.90
Noah Pelletier Saline -21.20 17:48.20 18:09.40
Ryan Gore Temperance-Bedford -1:27.50 18:30.60 19:58.10
Kevin Dancey Ann Arbor Pioneer -7.70 18:41.90 18:49.60
Kirk Phillips Southgate Anderson -3:06.40 18:55.80 22:02.20
Nicholas Wohlfeil Monroe -50.10 18:59.60 19:49.70
Caden Bodine Temperance-Bedford -35.30 18:59.90 19:35.20
Dylan Holly Allen Park -1:17.90 19:00.40 20:18.30
Kyle O'connor Dearborn Divine Child -39.10 19:07.40 19:46.50
Jacob Gladieux Monroe +19.80 19:32.10 19:12.30
Andrew Wight Dearborn Divine Child +10.80 19:29.40 19:18.60
Ezekiel Centeno Southgate Anderson -1:05.70 19:29.60 20:35.30
Daniel Gass Dearborn Divine Child -24.50 19:31.20 19:55.70
Brendan Sutton Ann Arbor Pioneer -1:50.20 19:35.50 21:25.70
Jacob Lerette New Boston Huron +7:50.50 27:27.70 19:37.20
Samuel Dudek Dearborn Divine Child -39.00 19:40.70 20:19.70
Alec Brovont Wyandotte Roosevelt +55.90 20:43.70 19:47.80
Kyle Meeker New Boston Huron -35.30 19:51.10 20:26.40
Noah Hall Temperance-Bedford -14.50 19:51.40 20:05.90
Jeffrey Mrowka Dearborn Divine Child -13.10 19:54.70 20:07.80
Lawrence Stanley New Boston Huron -2:02.90 19:57.60 22:00.50
Javier Caldwell Brownstown Woodhaven -4:49.60 20:02.60 24:52.20
Noah Finley Monroe -1:20.40 20:06.70 21:27.10
Justin Miner Allen Park -59.10 20:12.50 21:11.60
Marco Muniz Allen Park -10.80 20:28.80 20:39.60
Jack Harrison Temperance-Bedford -17.30 20:46.30 21:03.60
Lake Warden New Boston Huron +18.40 21:05.90 20:47.50
Alex Plata Ann Arbor Pioneer -5:49.30 20:50.50 26:39.80
Tyler Melcher Riverview -44.40 21:00.10 21:44.50
Katrina Beardsley Ann Arbor Pioneer -34.90 21:04.40 21:39.30
Nathan Holder New Boston Huron +6:22.60 27:29.30 21:06.70
Carina Sanborn Ann Arbor Pioneer -1:22.40 21:19.00 22:41.40
Luis Rivera Wayne Memorial -1:19.10 21:20.50 22:39.60
Kyle Murney New Boston Huron +59.30 22:21.30 21:22.00
Analeigh Majewski Temperance-Bedford -23.10 21:35.20 21:58.30
Jason Sax Brownstown Woodhaven -5:44.60 21:37.00 27:21.60
Spencer Buckler Allen Park -8.90 21:42.20 21:51.10
Presley Schmus Temperance-Bedford -1:26.80 21:44.50 23:11.30
Anna Laforest Ann Arbor Gabriel Richard -1:10.30 21:59.00 23:09.30
Elijah Rowe Gibraltar Carlson -2:07.70 22:06.80 24:14.50
Lauren Jamsen Ann Arbor Pioneer +41.80 22:56.00 22:14.20
Sarah Baybeck Ann Arbor Pioneer +9.20 22:40.30 22:31.10
Alex Knapp Temperance-Bedford +1:45.50 24:31.30 22:45.80
Amelia Catanzaro Ann Arbor Pioneer -12.10 22:48.80 23:00.90
Madelynn Shannon Dearborn Divine Child -2:10.20 22:49.20 24:59.40
Paige Mccreadie Ann Arbor Pioneer -1:54.50 22:56.50 24:51.00
Kale Lampman Ann Arbor Pioneer -54.70 23:02.90 23:57.60
Bryanna Kramarczyk Ypsilanti Lincoln -2:50.30 23:22.40 26:12.70
Dayna Dec Temperance-Bedford -20.50 23:22.70 23:43.20
Abby Anderson Temperance-Bedford +1:13.20 25:00.70 23:47.50
Olivia Rasche Ann Arbor Pioneer +1:48.00 26:21.70 24:33.70
Grace Benz Ann Arbor Gabriel Richard +1:18.70 26:11.90 24:53.20
Sydney Mertens Ypsilanti Lincoln -4:26.60 24:53.80 29:20.40
Kelly Samulski Dearborn Divine Child -1:12.20 25:34.60 26:46.80
Leah Driehorst Temperance-Bedford +21.30 25:59.50 25:38.20
Rebekah Schneider Ann Arbor Gabriel Richard -44.40 26:14.80 26:59.20
Carolyn Bonar Ann Arbor Gabriel Richard -2:38.90 27:12.80 29:51.70
Gloria Lopez Lincoln Park -4:06.00 29:33.70 33:39.70
Maria Karls Ann Arbor Gabriel Richard -1:09.60 29:43.90 30:53.50
Emily Rensi Ann Arbor Gabriel Richard +3:06.40 35:11.10 32:04.70
Anne Self Carleton Airport +3:15.80 36:11.80 32:56.00
Lucy Chavey Ann Arbor Gabriel Richard -1:14.60 35:19.00 36:33.60